Location: Cold Norton
(51.6667°N, 0.6667°E)
Time: 16:18:39
(UTC+00:00)

Cosmos 1975 Rocket - Pass Details

Date: 18 November 2025
Orbit: 598 x 626 km, 82.5° (Epoch: 09 December)

Event Time Altitude Azimuth Distance (km) Brightness Sun altitude
Rises 17:40:34 0° 344° (NNW) 2,873 6.5 -14.8°
Reaches altitude 10° 17:42:51 10° 337° (NNW) 1,968 5.8 -15.1°
Maximum altitude 17:46:57 42° 267° (W) 879 4.4 -15.8°
Drops below altitude 10° 17:51:04 10° 197° (SSW) 1,969 6.0 -16.4°
Sets 17:53:21 0° 190° (S) 2,874 6.8 -16.7°
